Wind_Speed
8 7 5 4 5 6 5 4 3 3 2 2 1 1 2 2 2 3 3 4 5 5 6 7 6 6 7 8 8 9 9 10 10 10 10 10 9 10 10 10 10 10 10
8 7 6 7 6 7 7 6 4 4 3 2 2 2 2 2 2 3 3 4 5 5 6 6 6 7 8 8 9 10 10 10 10 10 11 11 11 11 11 11 11 11 11
8 8 7 7 6 7 6 6 5 5 4 3 3 3 3 2 2 3 4 4 5 5 6 6 7 7 8 9 9 9 10 10 10 11 11 11 11 11 12 12 12 13 13
7 8 7 6 6 6 5 5 5 5 6 5 5 4 4 3 2 3 4 4 4 5 6 6 7 7 8 8 9 9 10 10 10 11 11 12 12 12 12 12 12 12 12
8 8 7 7 6 6 5 4 5 5 6 6 6 5 5 4 4 4 4 4 4 6 6 6 7 8 8 9 9 9 9 10 11 12 12 12 12 12 12 12 12 12 12
7 7 7 7 7 7 6 5 5 6 6 6 5 5 6 5 5 5 6 6 6 6 6 7 8 8 9 9 10 10 11 11 11 11 12 12 12 12 11 12 12 12 12
7 7 6 6 6 6 7 7 7 7 7 6 6 5 5 5 5 5 6 6 7 7 7 8 8 9 10 10 11 11 11 10 11 12 12 11 11 11 11 11 12 12 12
7 7 7 7 7 6 7 7 7 7 8 7 7 6 6 6 6 6 6 6 7 8 8 9 10 11 11 12 11 12 11 12 12 12 12 11 11 12 12 12 13 12 13
7 6 6 7 7 7 7 8 8 8 8 8 8 7 6 6 7 7 7 7 8 8 9 10 10 11 12 13 13 13 13 13 13 14 13 12 12 13 13 13 13 14 14
7 6 7 7 8 7 8 8 8 8 8 9 8 8 8 8 8 8 8 8 9 9 10 11 12 12 13 14 14 15 15 15 15 15 14 13 13 14 14 14 14 14 14
8 8 8 8 9 9 9 9 9 9 9 9 8 9 8 8 8 9 9 10 10 11 12 12 13 14 15 15 15 16 16 17 16 16 15 14 14 15 15 16 16 15 14
9 9 9 9 10 10 10 10 11 10 10 9 9 10 9 10 10 10 11 12 12 13 13 14 15 16 17 17 17 17 17 17 17 17 16 16 16 15 15 15 15 15 15
11 11 10 11 11 11 11 11 11 11 10 10 11 11 11 12 12 13 13 14 14 14 15 15 16 16 17 18 19 18 17 17 17 17 17 16 16 16 16 16 16 16 16
13 12 12 13 13 13 13 13 13 12 12 12 12 13 13 14 14 15 16 16 16 16 17 17 16 17 18 19 19 19 19 19 19 19 19 18 18 17 17 18 18 17 17
14 14 14 14 14 14 15 15 15 14 14 14 14 14 15 15 16 17 18 18 18 18 18 19 19 20 20 21 21 21 21 20 21 21 21 21 20 19 19 19 19 19 19
16 16 15 16 16 16 16 16 16 16 16 16 17 17 17 17 18 19 19 20 20 20 20 21 22 22 22 23 23 23 23 23 23 22 21 21 21 20 21 20 21 21 20
16 17 16 17 17 18 18 18 18 17 17 18 18 18 19 19 20 20 21 21 22 22 22 22 23 23 23 24 24 24 25 25 25 24 23 23 22 22 22 22 21 21 22
18 19 18 18 18 19 19 19 19 19 19 19 20 20 21 21 22 22 23 23 24 24 24 23 24 24 24 25 25 26 26 25 25 25 24 24 24 24 24 23 23 23 23
20 21 21 21 21 21 21 21 21 21 21 22 22 22 22 23 23 23 24 24 25 25 25 24 24 25 25 25 25 26 26 26 26 26 26 25 25 25 25 24 24 23 24
22 23 22 23 23 23 23 23 23 23 23 24 24 24 24 25 25 25 25 25 25 25 25 25 25 26 26 26 26 26 26 27 27 27 27 27 26 26 25 25 24 24 25
24 24 24 24 24 24 25 25 25 25 25 25 25 25 26 25 26 26 27 26 26 25 25 26 26 26 26 26 26 26 26 27 27 27 27 27 27 27 27 26 25 25 25
25 25 25 25 26 26 26 26 26 26 26 26 26 27 27 27 27 27 27 27 27 27 28 28 27 27 27 28 28 28 27 27 27 28 28 27 27 27 27 26 25 25 25
26 26 26 26 27 27 28 27 27 27 28 28 28 28 28 28 28 27 28 29 29 29 29 29 30 29 29 29 29 28 28 27 28 28 28 28 28 28 28 26 26 25 26
28 28 28 28 27 27 27 27 28 28 28 28 29 29 29 29 29 29 30 30 30 30 30 31 31 30 29 29 29 28 28 28 28 29 29 28 28 28 28 27 27 27 27
29 29 29 29 28 28 29 29 30 30 30 30 30 30 30 31 31 31 31 31 31 31 31 32 32 31 30 29 29 29 29 28 29 29 29 29 29 28 27 26 26 26 26
30 30 31 30 29 30 30 31 31 31 31 31 32 32 32 32 33 33 33 33 33 33 33 33 33 32 32 31 31 30 30 30 30 30 30 29 29 28 27 26 26 25 25
Wind_Direction
45 41 38 52 54 52 49 45 51 48 60 67 56 49 36 28 3 353 330 317 310 308 307 306 302 303 308 305 303 304 311 308 308 310 306 300 294 292 294 294 293 292 291
39 41 38 39 38 34 32 32 30 35 30 37 24 32 34 18 354 337 328 326 324 323 320 316 314 312 310 311 308 307 312 316 312 309 309 305 297 291 292 292 291 290 287
31 30 32 35 31 28 25 26 30 26 24 25 18 10 4 350 335 334 334 329 328 321 322 321 315 313 312 313 311 312 312 316 315 312 310 305 299 294 294 297 294 289 286
23 26 28 28 25 21 20 30 26 21 23 22 20 12 5 351 326 324 330 329 331 327 326 325 322 321 323 323 322 316 316 317 316 314 310 306 302 299 297 295 296 296 288
25 24 21 19 16 8 6 8 12 11 12 10 8 8 4 347 337 321 317 324 330 333 330 330 330 330 332 332 330 330 321 319 322 321 316 311 306 300 298 299 300 300 296
17 15 16 16 13 10 3 357 358 359 1 0 356 352 356 350 341 331 327 322 324 324 325 330 331 331 332 331 332 332 327 323 323 319 317 315 311 310 302 300 301 300 298
7 6 7 7 10 6 1 357 354 354 354 347 343 336 339 344 341 339 334 329 326 323 326 330 330 332 333 327 328 329 328 322 321 320 317 314 313 313 312 308 305 304 300
354 358 7 6 4 0 356 354 354 353 353 352 344 339 341 339 341 335 330 327 325 323 325 327 332 332 333 331 325 324 326 324 322 322 319 316 313 313 309 306 307 303 301
350 352 353 354 352 351 347 347 343 339 339 338 341 341 338 338 335 330 326 326 325 326 326 326 328 331 332 331 328 324 324 323 321 320 318 315 311 308 307 306 307 305 300
343 339 339 338 337 336 334 336 335 332 329 328 329 334 336 336 332 328 324 323 325 324 322 323 323 325 326 328 326 325 325 324 323 321 317 313 310 307 302 303 305 303 300
334 328 324 326 327 326 325 332 330 326 324 323 321 324 326 326 325 323 319 318 318 319 320 319 317 318 318 318 318 319 320 321 322 321 319 317 312 307 302 301 300 298 296
326 325 319 318 320 320 319 322 322 318 315 314 314 313 313 313 315 318 317 314 315 316 317 317 317 316 314 314 312 313 314 315 316 315 313 313 311 308 304 303 300 297 294
320 319 316 311 312 313 315 317 317 314 309 307 307 306 306 307 306 308 310 311 312 314 315 314 313 314 316 313 311 312 311 312 313 313 310 308 307 306 304 304 299 295 294
313 312 311 309 306 306 308 309 307 304 303 304 304 302 302 302 304 305 306 307 308 309 311 313 314 315 316 314 312 309 308 309 308 309 307 304 302 301 299 301 299 295 294
307 306 304 305 306 304 304 303 302 301 300 300 301 300 300 301 302 304 305 304 306 310 312 313 313 312 310 309 310 309 308 308 305 305 304 301 300 297 296 296 297 295 292
305 302 300 300 300 302 303 300 298 297 298 298 298 297 297 299 299 300 301 302 306 308 308 310 310 311 310 308 307 308 306 305 304 304 303 301 299 296 295 294 295 294 292
303 303 299 298 298 299 300 299 300 298 298 299 298 297 296 298 299 299 300 300 302 304 307 308 307 309 308 308 308 307 306 304 302 301 302 301 301 300 296 295 294 293 291
298 299 296 295 296 297 298 297 298 297 297 297 297 297 296 295 296 297 298 298 301 302 303 305 305 306 307 307 306 304 304 302 301 299 300 300 300 299 297 295 293 292 291
295 295 294 294 295 295 295 294 294 294 294 295 295 296 297 298 297 296 296 297 299 301 302 303 304 305 306 305 305 304 302 302 301 300 299 300 299 299 295 293 291 291 291
296 295 293 293 294 294 294 293 293 293 293 293 294 295 295 296 298 298 297 297 298 300 300 300 302 303 304 304 304 304 302 302 301 300 300 300 299 299 296 294 293 290 289
296 296 293 292 292 292 292 292 292 292 293 293 293 294 294 295 296 297 298 298 299 300 301 302 302 303 304 304 305 305 304 302 301 300 300 300 299 297 296 294 292 290 289
293 294 293 293 291 291 290 290 291 292 292 292 293 294 294 293 294 296 298 299 300 301 301 301 300 301 301 302 303 304 303 302 302 301 300 300 299 298 296 293 291 289 289
290 291 290 291 291 290 289 289 291 290 291 291 292 292 293 294 294 296 297 298 299 299 301 302 301 299 299 299 300 301 301 301 301 301 301 299 298 297 295 292 290 288 288
289 289 288 289 290 289 290 291 290 290 290 290 291 291 292 293 292 293 294 294 295 297 298 299 300 300 299 298 299 299 300 300 300 301 301 300 298 297 295 292 289 287 287
289 288 287 287 287 287 288 289 288 288 289 289 289 289 290 290 291 292 292 293 294 295 296 297 297 298 298 297 297 297 299 300 300 301 301 300 299 297 295 291 289 288 287
290 288 288 287 286 287 287 286 287 288 288 288 287 287 288 289 289 290 290 291 293 293 294 295 296 295 295 295 296 297 298 300 300 299 299 299 299 298 296 292 289 286 287
Height
5884 5884 5884 5884 5883 5883 5883 5883 5884 5884 5884 5884 5885 5885 5885 5885 5885 5885 5886 5886 5886 5886 5885 5885 5885 5884 5884 5883 5882 5882 5881 5880 5879 5878 5877 5877 5876 5875 5875 5874 5874 5873 5873
5887 5886 5886 5886 5885 5885 5885 5885 5884 5884 5885 5885 5885 5885 5885 5885 5885 5886 5886 5886 5885 5885 5885 5884 5884 5883 5882 5882 5881 5880 5879 5878 5877 5876 5876 5875 5874 5873 5873 5872 5872 5871 5871
5888 5888 5887 5887 5887 5886 5886 5886 5886 5886 5885 5885 5885 5885 5885 5885 5885 5885 5885 5885 5885 5884 5884 5884 5883 5882 5881 5880 5879 5878 5877 5876 5875 5874 5873 5872 5871 5871 5870 5870 5869 5868 5868
5889 5889 5889 5888 5888 5887 5887 5887 5887 5887 5886 5885 5885 5885 5885 5885 5885 5885 5885 5884 5884 5884 5883 5883 5882 5881 5880 5879 5878 5877 5875 5874 5873 5872 5871 5870 5869 5869 5868 5867 5866 5865 5865
5891 5891 5890 5889 5889 5889 5888 5888 5887 5887 5886 5886 5885 5885 5885 5885 5885 5884 5884 5884 5883 5883 5882 5881 5881 5880 5879 5877 5876 5875 5874 5873 5871 5870 5869 5868 5867 5866 5865 5864 5863 5863 5862
5892 5892 5891 5890 5890 5889 5889 5888 5888 5887 5887 5886 5885 5885 5885 5884 5884 5884 5883 5883 5882 5882 5881 5880 5879 5879 5877 5876 5875 5874 5872 5871 5869 5868 5867 5865 5864 5863 5862 5862 5861 5860 5859
5893 5893 5892 5891 5891 5890 5889 5889 5888 5887 5887 5886 5885 5885 5884 5884 5884 5883 5882 5882 5881 5880 5880 5879 5878 5877 5876 5875 5873 5872 5870 5869 5867 5866 5864 5863 5862 5860 5860 5859 5858 5857 5856
5893 5893 5892 5892 5891 5890 5889 5888 5888 5887 5887 5886 5885 5884 5884 5884 5883 5882 5881 5881 5880 5880 5879 5878 5877 5876 5875 5873 5871 5870 5868 5867 5865 5863 5862 5860 5859 5858 5857 5856 5855 5854 5853
5894 5893 5892 5892 5891 5890 5889 5888 5887 5887 5886 5885 5884 5884 5883 5883 5882 5881 5880 5879 5879 5878 5878 5877 5875 5874 5873 5871 5869 5867 5866 5864 5862 5861 5859 5857 5856 5855 5854 5853 5852 5851 5850
5894 5893 5892 5891 5890 5889 5888 5887 5887 5886 5886 5885 5884 5883 5883 5882 5881 5880 5879 5878 5878 5877 5876 5874 5873 5872 5870 5869 5867 5865 5863 5862 5860 5858 5856 5855 5853 5852 5851 5850 5849 5848 5847
5893 5892 5892 5891 5890 5889 5888 5886 5886 5885 5884 5884 5883 5883 5882 5881 5880 5879 5878 5877 5876 5875 5874 5872 5871 5869 5868 5866 5864 5863 5861 5859 5857 5855 5853 5852 5850 5849 5848 5846 5845 5844 5843
5893 5891 5890 5889 5889 5887 5886 5886 5885 5884 5883 5882 5882 5881 5880 5879 5878 5877 5876 5875 5874 5873 5871 5870 5868 5866 5864 5863 5861 5859 5858 5856 5854 5852 5850 5848 5847 5845 5844 5843 5842 5841 5840
5891 5890 5889 5888 5887 5886 5885 5884 5883 5882 5881 5880 5879 5879 5878 5877 5876 5875 5874 5873 5871 5870 5868 5867 5865 5862 5860 5859 5857 5855 5854 5852 5850 5849 5847 5845 5843 5842 5840 5839 5837 5836 5836
5889 5888 5887 5886 5885 5884 5883 5882 5881 5880 5879 5878 5877 5876 5875 5874 5873 5872 5871 5869 5868 5866 5865 5863 5861 5858 5857 5855 5853 5851 5850 5848 5846 5844 5843 5841 5839 5837 5836 5834 5833 5832 5831
5886 5885 5884 5883 5882 5881 5880 5879 5878 5877 5875 5874 5873 5873 5872 5870 5869 5868 5867 5865 5864 5862 5861 5859 5857 5856 5853 5851 5849 5847 5845 5843 5841 5840 5838 5836 5834 5833 5831 5830 5828 5827 5826
5883 5882 5881 5880 5879 5878 5876 5875 5874 5873 5872 5871 5870 5869 5868 5867 5865 5864 5863 5861 5859 5858 5857 5855 5853 5851 5848 5846 5844 5842 5840 5838 5836 5834 5832 5830 5829 5827 5826 5824 5823 5822 5820
5879 5878 5877 5876 5875 5874 5873 5871 5870 5869 5868 5867 5866 5864 5863 5862 5861 5859 5858 5856 5855 5853 5851 5850 5847 5845 5843 5841 5838 5836 5834 5832 5830 5828 5827 5825 5823 5821 5820 5818 5817 5816 5814
5875 5874 5873 5872 5871 5870 5868 5867 5866 5865 5863 5862 5861 5859 5858 5857 5855 5854 5852 5851 5849 5847 5845 5844 5842 5840 5837 5835 5833 5831 5828 5826 5824 5822 5820 5819 5817 5815 5813 5812 5810 5809 5808
5870 5869 5868 5867 5866 5865 5864 5862 5861 5860 5858 5857 5855 5854 5853 5851 5850 5848 5846 5845 5843 5841 5839 5838 5836 5834 5831 5829 5826 5824 5822 5820 5818 5816 5814 5812 5810 5808 5806 5805 5803 5802 5800
5865 5864 5863 5861 5860 5859 5858 5856 5855 5854 5852 5851 5849 5848 5846 5845 5843 5842 5840 5838 5836 5834 5832 5831 5829 5827 5824 5822 5820 5818 5816 5813 5811 5809 5807 5805 5803 5801 5799 5798 5796 5794 5793
5859 5858 5856 5855 5854 5853 5852 5850 5849 5847 5846 5845 5843 5841 5840 5838 5837 5835 5833 5831 5829 5827 5825 5823 5822 5820 5818 5815 5814 5811 5809 5807 5805 5802 5800 5798 5796 5794 5792 5790 5788 5787 5785
5853 5852 5850 5849 5848 5846 5845 5843 5842 5841 5839 5838 5836 5834 5833 5832 5830 5828 5826 5824 5822 5820 5818 5816 5814 5813 5811 5808 5806 5804 5802 5800 5798 5796 5792 5790 5788 5786 5784 5782 5780 5779 5777
5846 5845 5844 5842 5841 5839 5837 5836 5834 5833 5832 5831 5829 5828 5826 5825 5823 5821 5819 5817 5815 5812 5811 5809 5807 5805 5803 5801 5799 5797 5794 5792 5790 5787 5785 5783 5780 5778 5776 5774 5772 5771 5769
5839 5838 5836 5835 5833 5832 5830 5828 5827 5825 5824 5823 5821 5820 5818 5817 5815 5813 5812 5810 5808 5805 5803 5801 5799 5797 5795 5793 5790 5789 5787 5784 5782 5779 5777 5775 5773 5770 5768 5766 5764 5762 5761
5831 5830 5829 5827 5825 5824 5822 5820 5819 5817 5816 5815 5813 5812 5810 5809 5807 5805 5803 5801 5799 5798 5795 5793 5791 5789 5787 5785 5783 5781 5779 5777 5775 5772 5769 5767 5764 5762 5760 5758 5756 5754 5753
5823 5821 5820 5818 5817 5815 5813 5812 5810 5809 5808 5806 5805 5803 5801 5800 5798 5796 5794 5793 5791 5789 5787 5785 5783 5780 5778 5776 5774 5772 5770 5768 5766 5764 5761 5759 5756 5754 5752 5750 5748 5746 5745